Location: Gayside
(49.3333°N, 54.7667°W)
Time: 03:22:31
(UTC+00:00)

ISS - Visible Passes

Search period start: 18 May 2022 00:00
Search period end: 28 May 2022 00:00
Orbit: 415 x 421 km, 51.6° (Epoch: 17 May)

Date Brightness Start Highest point End Pass type
(mag) Time Alt. Az. Time Alt. Az. Time Alt. Az.
18 May -3.9 00:23:19 10° WSW 00:26:40 73° SSE 00:30:01 10° ENE visible
18 May -3.1 02:00:15 10° W 02:03:34 56° N 02:06:53 10° ENE visible
18 May -3.1 03:37:11 10° WNW 03:39:46 50° WNW 03:39:46 50° WNW visible
19 May -3.2 01:12:16 10° W 01:15:35 60° N 01:18:55 10° ENE visible
19 May -3.5 02:49:15 10° WNW 02:52:36 67° NNE 02:53:15 51° ENE visible
19 May -1.0 04:26:08 10° WNW 04:26:10 10° WNW 04:26:10 10° WNW visible
20 May -3.4 00:24:16 10° W 00:27:38 70° NNW 00:30:59 10° ENE visible
20 May -3.2 02:01:18 10° WNW 02:04:38 59° N 02:06:47 20° E visible
20 May -2.1 03:38:08 10° WNW 03:39:41 24° W 03:39:41 24° W visible
21 May -3.1 01:13:18 10° WNW 01:16:38 55° N 01:19:56 10° E visible
21 May -3.7 02:50:10 10° WNW 02:53:13 69° W 02:53:13 69° W visible
22 May -3.1 00:25:16 10° W 00:28:35 56° N 00:31:54 10° ENE visible
22 May -3.8 02:02:12 10° WNW 02:05:34 80° NNE 02:06:46 37° E visible
22 May -1.2 03:39:13 10° W 03:39:40 13° W 03:39:40 13° W visible
23 May -3.4 01:14:12 10° WNW 01:17:33 66° N 01:20:19 14° E visible
23 May -2.5 02:51:04 10° WNW 02:53:13 30° WSW 02:53:13 30° WSW visible
24 May -3.2 00:26:11 10° WNW 00:29:30 58° N 00:32:50 10° E visible
24 May -3.7 02:03:01 10° WNW 02:06:20 59° SSW 02:06:46 52° SSE visible
25 May -3.9 01:14:58 10° WNW 01:18:20 81° SSW 01:20:20 23° ESE visible
25 May -1.5 02:52:15 10° W 02:53:15 15° WSW 02:53:15 15° WSW visible
26 May -3.7 00:26:56 10° WNW 00:30:18 79° NNE 00:33:39 10° ESE visible
26 May -2.6 02:03:55 10° W 02:06:49 28° SW 02:06:49 28° SW visible
27 May -3.2 01:15:44 10° WNW 01:18:56 42° SSW 01:20:24 25° SSE visible
